| time (UTC) | temp C | wind direction | speed KPH | gust KPH | rain 1hr cm | rain 24hr cm | rain mn cm | humidity % | barometer mb |
| 20260505041557 | 19 | 146 | 11.3 | 24.1 | 0.00 | 0.00 | 0.00 | 57 | 1009.2 |
| 20260505041046 | 19 | 208 | 12.9 | 24.1 | 0.00 | 0.00 | 0.00 | 57 | 1009.2 |
| 20260505040546 | 19 | 174 | 14.5 | 33.8 | 0.00 | 0.00 | 0.00 | 57 | 1009.2 |
| 20260505040054 | 19 | 179 | 12.9 | 33.8 | 0.00 | 0.00 | 0.00 | 57 | 1009.2 |
| 20260505035547 | 19 | 186 | 11.3 | 29.0 | 0.00 | 0.00 | 0.00 | 57 | 1009.1 |
| 20260505035050 | 19 | 153 | 14.5 | 25.7 | 0.00 | 0.00 | 0.00 | 57 | 1009.0 |
| 20260505034556 | 19 | 193 | 12.9 | 22.5 | 0.00 | 0.00 | 0.00 | 57 | 1009.0 |
| 20260505034047 | 19 | 175 | 11.3 | 19.3 | 0.00 | 0.00 | 0.00 | 57 | 1008.9 |
| 20260505033547 | 19 | 178 | 9.7 | 19.3 | 0.00 | 0.00 | 0.00 | 57 | 1008.9 |
| 20260505033053 | 19 | 179 | 9.7 | 17.7 | 0.00 | 0.00 | 0.00 | 57 | 1008.8 |
| 20260505032547 | 19 | 163 | 9.7 | 17.7 | 0.00 | 0.00 | 0.00 | 56 | 1008.8 |
| 20260505032050 | 20 | 180 | 11.3 | 17.7 | 0.00 | 0.00 | 0.00 | 56 | 1008.8 |
| 20260505031557 | 20 | 207 | 9.7 | 19.3 | 0.00 | 0.00 | 0.00 | 56 | 1008.8 |
| 20260505031045 | 20 | 173 | 11.3 | 19.3 | 0.00 | 0.00 | 0.00 | 56 | 1008.7 |
| 20260505030549 | 20 | 191 | 9.7 | 19.3 | 0.00 | 0.00 | 0.00 | 56 | 1008.7 |
| 20260505030104 | 20 | 170 | 8.0 | 17.7 | 0.00 | 0.00 | 0.00 | 56 | 1008.6 |
| 20260505025547 | 20 | 159 | 9.7 | 17.7 | 0.00 | 0.00 | 0.00 | 55 | 1008.7 |
| 20260505025048 | 20 | 184 | 6.4 | 17.7 | 0.00 | 0.00 | 0.00 | 55 | 1008.7 |
| 20260505024600 | 20 | 181 | 9.7 | 20.9 | 0.00 | 0.00 | 0.00 | 55 | 1008.7 |
| 20260505024046 | 20 | 160 | 11.3 | 20.9 | 0.00 | 0.00 | 0.00 | 55 | 1008.6 |
| 20260505023546 | 20 | 194 | 9.7 | 19.3 | 0.00 | 0.00 | 0.00 | 55 | 1008.7 |
| 20260505023059 | 20 | 178 | 11.3 | 19.3 | 0.00 | 0.00 | 0.00 | 55 | 1008.7 |
| 20260505022547 | 20 | 182 | 11.3 | 20.9 | 0.00 | 0.00 | 0.00 | 55 | 1008.8 |
| 20260505022048 | 20 | 179 | 11.3 | 20.9 | 0.00 | 0.00 | 0.00 | 55 | 1008.7 |
| 20260505021554 | 20 | 180 | 9.7 | 19.3 | 0.00 | 0.00 | 0.00 | 55 | 1008.8 |
| 20260505021046 | 20 | 178 | 9.7 | 17.7 | 0.00 | 0.00 | 0.00 | 54 | 1008.6 |
| 20260505020548 | 21 | 197 | 8.0 | 16.1 | 0.00 | 0.00 | 0.00 | 54 | 1008.7 |
| 20260505015548 | 21 | 189 | 6.4 | 12.9 | 0.00 | 0.00 | 0.00 | 53 | 1008.6 |
| 20260505015048 | 21 | 186 | 8.0 | 12.9 | 0.00 | 0.00 | 0.00 | 53 | 1008.6 |
| 20260505014557 | 21 | 188 | 8.0 | 12.9 | 0.00 | 0.00 | 0.00 | 52 | 1008.5 |
| 20260505014051 | 21 | 192 | 6.4 | 14.5 | 0.00 | 0.00 | 0.00 | 52 | 1008.5 |
| 20260505013547 | 21 | 183 | 8.0 | 14.5 | 0.00 | 0.00 | 0.00 | 51 | 1008.5 |
| 20260505013102 | 21 | 183 | 8.0 | 16.1 | 0.00 | 0.00 | 0.00 | 51 | 1008.5 |
| 20260505012549 | 21 | 183 | 6.4 | 16.1 | 0.00 | 0.00 | 0.00 | 51 | 1008.5 |
| 20260505012047 | 22 | 177 | 8.0 | 17.7 | 0.00 | 0.00 | 0.00 | 51 | 1008.5 |
| 20260505011554 | 22 | 171 | 8.0 | 17.7 | 0.00 | 0.00 | 0.00 | 50 | 1008.5 |
| 20260505011047 | 22 | 175 | 9.7 | 16.1 | 0.00 | 0.00 | 0.00 | 50 | 1008.4 |
| 20260505010548 | 22 | 200 | 9.7 | 16.1 | 0.00 | 0.00 | 0.00 | 50 | 1008.5 |
| 20260505010115 | 22 | 180 | 8.0 | 14.5 | 0.00 | 0.00 | 0.00 | 49 | 1008.4 |
| 20260505005547 | 22 | 190 | 8.0 | 17.7 | 0.00 | 0.00 | 0.00 | 49 | 1008.4 |
| 20260505005048 | 22 | 184 | 9.7 | 17.7 | 0.00 | 0.00 | 0.00 | 49 | 1008.4 |
| 20260505004555 | 22 | 183 | 9.7 | 14.5 | 0.00 | 0.00 | 0.00 | 49 | 1008.5 |
| 20260505004046 | 22 | 182 | 9.7 | 14.5 | 0.00 | 0.00 | 0.00 | 49 | 1008.5 |
| 20260505003551 | 22 | 205 | 9.7 | 14.5 | 0.00 | 0.00 | 0.00 | 49 | 1008.6 |
| 20260505003057 | 22 | 187 | 9.7 | 20.9 | 0.00 | 0.00 | 0.00 | 48 | 1008.5 |
| 20260505002547 | 22 | 190 | 11.3 | 20.9 | 0.00 | 0.00 | 0.00 | 48 | 1008.5 |
| 20260505002043 | 22 | 198 | 9.7 | 17.7 | 0.00 | 0.00 | 0.00 | 48 | 1008.4 |
| 20260505001555 | 23 | 193 | 9.7 | 17.7 | 0.00 | 0.00 | 0.00 | 48 | 1008.4 |
| 20260505001046 | 23 | 188 | 9.7 | 14.5 | 0.00 | 0.00 | 0.00 | 47 | 1008.3 |
| 20260505000547 | 23 | 178 | 8.0 | 12.9 | 0.00 | 0.00 | 0.00 | 47 | 1008.3 |
| 20260505000100 | 23 | 194 | 8.0 | 16.1 | 0.00 | 0.00 | 0.00 | 47 | 1008.2 |
| 20260504235547 | 23 | 192 | 9.7 | 16.1 | 0.00 | 0.00 | 0.00 | 46 | 1008.2 |
| 20260504235047 | 23 | 174 | 9.7 | 19.3 | 0.00 | 0.00 | 0.00 | 46 | 1008.2 |
| 20260504234554 | 23 | 171 | 11.3 | 19.3 | 0.00 | 0.00 | 0.00 | 46 | 1008.2 |
| 20260504234048 | 23 | 186 | 11.3 | 25.7 | 0.00 | 0.00 | 0.00 | 45 | 1008.3 |
| 20260504233546 | 23 | 185 | 11.3 | 25.7 | 0.00 | 0.00 | 0.00 | 45 | 1008.4 |
| 20260504233101 | 23 | 180 | 16.1 | 25.7 | 0.00 | 0.00 | 0.00 | 45 | 1008.5 |
| 20260504232549 | 23 | 192 | 16.1 | 24.1 | 0.00 | 0.00 | 0.00 | 44 | 1008.4 |
| 20260504232046 | 23 | 194 | 14.5 | 20.9 | 0.00 | 0.00 | 0.00 | 45 | 1008.4 |
| 20260504231552 | 23 | 215 | 12.9 | 27.4 | 0.00 | 0.00 | 0.00 | 44 | 1008.4 |
| 20260504231043 | 23 | 194 | 16.1 | 29.0 | 0.00 | 0.00 | 0.00 | 44 | 1008.5 |
| 20260504230546 | 23 | 215 | 16.1 | 37.0 | 0.00 | 0.00 | 0.00 | 43 | 1008.6 |
| 20260504230100 | 24 | 216 | 25.7 | 38.6 | 0.00 | 0.00 | 0.00 | 43 | 1008.7 |
| 20260504225543 | 24 | 213 | 22.5 | 38.6 | 0.00 | 0.00 | 0.00 | 42 | 1008.5 |
| 20260504225047 | 24 | 219 | 20.9 | 43.5 | 0.00 | 0.00 | 0.00 | 42 | 1008.4 |
| 20260504224552 | 24 | 190 | 19.3 | 43.5 | 0.00 | 0.00 | 0.00 | 43 | 1008.4 |
| 20260504224046 | 24 | 229 | 14.5 | 27.4 | 0.00 | 0.00 | 0.00 | 43 | 1008.4 |
| 20260504223548 | 24 | 228 | 16.1 | 27.4 | 0.00 | 0.00 | 0.00 | 44 | 1008.4 |
| 20260504223100 | 24 | 190 | 12.9 | 29.0 | 0.00 | 0.00 | 0.00 | 44 | 1008.6 |
| 20260504222544 | 24 | 221 | 14.5 | 30.6 | 0.00 | 0.00 | 0.00 | 44 | 1008.5 |
| 20260504222046 | 24 | 224 | 22.5 | 30.6 | 0.00 | 0.00 | 0.00 | 43 | 1008.6 |
| 20260504221552 | 24 | 194 | 16.1 | 30.6 | 0.00 | 0.00 | 0.00 | 44 | 1008.6 |
| 20260504221043 | 24 | 209 | 12.9 | 27.4 | 0.00 | 0.00 | 0.00 | 46 | 1008.6 |
| 20260504220548 | 24 | 226 | 16.1 | 32.2 | 0.00 | 0.00 | 0.00 | 44 | 1008.6 |
| 20260504220052 | 24 | 251 | 22.5 | 37.0 | 0.00 | 0.00 | 0.00 | 44 | 1008.7 |
| 20260504215547 | 24 | 216 | 24.1 | 35.4 | 0.00 | 0.00 | 0.00 | 44 | 1008.8 |
| 20260504215046 | 24 | 208 | 20.9 | 35.4 | 0.00 | 0.00 | 0.00 | 44 | 1008.8 |
| 20260504214608 | 24 | 216 | 24.1 | 35.4 | 0.00 | 0.00 | 0.00 | 44 | 1008.7 |
| 20260504214047 | 24 | 219 | 24.1 | 35.4 | 0.00 | 0.00 | 0.00 | 43 | 1008.8 |
| 20260504213547 | 24 | 197 | 22.5 | 33.8 | 0.00 | 0.00 | 0.00 | 44 | 1008.9 |
| 20260504213121 | 24 | 200 | 19.3 | 33.8 | 0.00 | 0.00 | 0.00 | 45 | 1008.8 |
| 20260504212547 | 24 | 211 | 20.9 | 30.6 | 0.00 | 0.00 | 0.00 | 45 | 1008.8 |
| 20260504212046 | 24 | 222 | 19.3 | 33.8 | 0.00 | 0.00 | 0.00 | 45 | 1008.7 |
| 20260504211556 | 24 | 225 | 25.7 | 33.8 | 0.00 | 0.00 | 0.00 | 44 | 1008.6 |
| 20260504211048 | 24 | 211 | 24.1 | 33.8 | 0.00 | 0.00 | 0.00 | 44 | 1008.8 |
| 20260504210548 | 24 | 221 | 16.1 | 33.8 | 0.00 | 0.00 | 0.00 | 46 | 1008.9 |
| 20260504210058 | 23 | 214 | 20.9 | 41.8 | 0.00 | 0.00 | 0.00 | 45 | 1009.0 |
| 20260504205546 | 23 | 197 | 25.7 | 41.8 | 0.00 | 0.00 | 0.00 | 46 | 1009.0 |
| 20260504205043 | 23 | 211 | 20.9 | 29.0 | 0.00 | 0.00 | 0.00 | 46 | 1009.1 |
| 20260504204555 | 23 | 213 | 14.5 | 29.0 | 0.00 | 0.00 | 0.00 | 50 | 1009.2 |
| 20260504204047 | 23 | 181 | 8.0 | 27.4 | 0.00 | 0.00 | 0.00 | 51 | 1009.3 |
| 20260504203546 | 23 | 190 | 12.9 | 27.4 | 0.00 | 0.00 | 0.00 | 52 | 1009.2 |
| 20260504203106 | 22 | 174 | 17.7 | 33.8 | 0.00 | 0.00 | 0.00 | 51 | 1009.3 |
| 20260504202547 | 22 | 194 | 19.3 | 33.8 | 0.00 | 0.00 | 0.00 | 51 | 1009.3 |
| 20260504202047 | 23 | 221 | 19.3 | 37.0 | 0.00 | 0.00 | 0.00 | 51 | 1009.4 |
| 20260504201613 | 23 | 213 | 19.3 | 37.0 | 0.00 | 0.00 | 0.00 | 50 | 1009.5 |
| 20260504201051 | 23 | 197 | 20.9 | 32.2 | 0.00 | 0.00 | 0.00 | 51 | 1009.4 |
| 20260504200547 | 22 | 174 | 17.7 | 38.6 | 0.00 | 0.00 | 0.00 | 53 | 1009.5 |
| 20260504200053 | 22 | 194 | 22.5 | 38.6 | 0.00 | 0.00 | 0.00 | 52 | 1009.5 |
| 20260504195545 | 22 | 168 | 25.7 | 38.6 | 0.00 | 0.00 | 0.00 | 52 | 1009.7 |
| 20260504195047 | 22 | 181 | 24.1 | 35.4 | 0.00 | 0.00 | 0.00 | 53 | 1009.7 |
| 20260504194602 | 22 | 215 | 20.9 | 35.4 | 0.00 | 0.00 | 0.00 | 53 | 1009.7 |
| 20260504194048 | 21 | 201 | 20.9 | 37.0 | 0.00 | 0.00 | 0.00 | 53 | 1009.9 |
| 20260504193547 | 21 | 213 | 19.3 | 37.0 | 0.00 | 0.00 | 0.00 | 54 | 1010.0 |
| 20260504193102 | 21 | 167 | 20.9 | 32.2 | 0.00 | 0.00 | 0.00 | 54 | 1010.1 |
| 20260504192547 | 21 | 182 | 20.9 | 32.2 | 0.00 | 0.00 | 0.00 | 54 | 1010.2 |
| 20260504192051 | 21 | 157 | 12.9 | 30.6 | 0.00 | 0.00 | 0.00 | 54 | 1010.2 |
| 20260504191604 | 21 | 147 | 16.1 | 29.0 | 0.00 | 0.00 | 0.00 | 54 | 1010.3 |
| 20260504191048 | 21 | 171 | 16.1 | 27.4 | 0.00 | 0.00 | 0.00 | 54 | 1010.3 |
| 20260504190548 | 20 | 181 | 14.5 | 27.4 | 0.00 | 0.00 | 0.00 | 56 | 1010.4 |
| 20260504190114 | 20 | 127 | 14.5 | 32.2 | 0.00 | 0.00 | 0.00 | 55 | 1010.4 |
| 20260504185549 | 20 | 175 | 17.7 | 37.0 | 0.00 | 0.00 | 0.00 | 55 | 1010.4 |
| 20260504185045 | 19 | 219 | 22.5 | 37.0 | 0.00 | 0.00 | 0.00 | 56 | 1010.4 |
| 20260504184613 | 19 | 197 | 22.5 | 37.0 | 0.00 | 0.00 | 0.00 | 56 | 1010.5 |
| 20260504184046 | 20 | 182 | 16.1 | 32.2 | 0.00 | 0.00 | 0.00 | 55 | 1010.6 |
| 20260504183547 | 19 | 181 | 17.7 | 30.6 | 0.00 | 0.00 | 0.00 | 57 | 1010.6 |
| 20260504183059 | 18 | 188 | 16.1 | 32.2 | 0.00 | 0.00 | 0.00 | 58 | 1010.7 |
| 20260504182546 | 18 | 152 | 16.1 | 38.6 | 0.00 | 0.00 | 0.00 | 60 | 1010.9 |
| 20260504182047 | 18 | 178 | 20.9 | 38.6 | 0.00 | 0.00 | 0.00 | 60 | 1011.0 |
| 20260504181603 | 18 | 156 | 25.7 | 38.6 | 0.00 | 0.00 | 0.00 | 59 | 1011.1 |
| 20260504181047 | 18 | 178 | 9.7 | 33.8 | 0.00 | 0.00 | 0.00 | 57 | 1010.8 |
| 20260504180547 | 18 | 229 | 22.5 | 33.8 | 0.00 | 0.00 | 0.00 | 55 | 1011.8 |
| 20260504180056 | 18 | 244 | 17.7 | 30.6 | 0.00 | 0.00 | 0.00 | 55 | 1012.0 |
| 20260504175546 | 18 | 225 | 20.9 | 33.8 | 0.00 | 0.00 | 0.00 | 55 | 1011.9 |
| 20260504175047 | 19 | 223 | 19.3 | 37.0 | 0.00 | 0.00 | 0.00 | 54 | 1011.7 |
| 20260504174559 | 19 | 188 | 24.1 | 37.0 | 0.00 | 0.00 | 0.00 | 54 | 1011.4 |
| 20260504174047 | 19 | 225 | 27.4 | 35.4 | 0.00 | 0.00 | 0.00 | 53 | 1011.2 |
| 20260504173549 | 19 | 211 | 25.7 | 35.4 | 0.00 | 0.00 | 0.00 | 52 | 1011.0 |
| 20260504173103 | 20 | 229 | 24.1 | 35.4 | 0.00 | 0.00 | 0.00 | 52 | 1011.0 |
| 20260504172547 | 20 | 192 | 20.9 | 33.8 | 0.00 | 0.00 | 0.00 | 54 | 1010.9 |
| 20260504172048 | 19 | 200 | 20.9 | 32.2 | 0.00 | 0.00 | 0.00 | 55 | 1010.8 |
| 20260504171613 | 19 | 170 | 19.3 | 35.4 | 0.00 | 0.00 | 0.00 | 55 | 1010.8 |
| 20260504171047 | 18 | 203 | 20.9 | 38.6 | 0.00 | 0.00 | 0.00 | 57 | 1010.7 |
| 20260504170547 | 18 | 188 | 20.9 | 38.6 | 0.00 | 0.00 | 0.00 | 57 | 1010.8 |
| 20260504160105 | 16 | 206 | 25.7 | 41.8 | 0.00 | 0.00 | 0.00 | 62 | 1011.6 |
| 20260504151047 | 15 | 202 | 22.5 | 37.0 | 0.00 | 0.00 | 0.00 | 69 | 1012.2 |
| 20260504150548 | 15 | 217 | 19.3 | 37.0 | 0.00 | 0.00 | 0.00 | 71 | 1012.4 |
| 20260504141047 | 13 | 216 | 16.1 | 32.2 | 0.00 | 0.00 | 0.00 | 76 | 1013.2 |
| 20260504140548 | 12 | 186 | 19.3 | 41.8 | 0.00 | 0.00 | 0.00 | 76 | 1013.1 |
| 20260504140108 | 12 | 209 | 19.3 | 41.8 | 0.00 | 0.00 | 0.00 | 76 | 1013.1 |
| 20260504130547 | 11 | 220 | 19.3 | 30.6 | 0.00 | 0.00 | 0.00 | 79 | 1013.6 |
| 20260504120109 | 12 | 198 | 20.9 | 33.8 | 0.00 | 0.00 | 0.00 | 64 | 1013.0 |
| 20260504110549 | 10 | 154 | 12.9 | 22.5 | 0.00 | 0.00 | 0.00 | 64 | 1012.6 |
| 20260504110105 | 10 | 165 | 9.7 | 22.5 | 0.00 | 0.00 | 0.00 | 64 | 1012.6 |
| 20260504100549 | 10 | 175 | 9.7 | 16.1 | 0.00 | 0.00 | 0.00 | 61 | 1012.7 |
| 20260504081603 | 10 | 161 | 6.4 | 11.3 | 0.00 | 0.00 | 0.00 | 60 | 1013.2 |
| 20260504081048 | 10 | 159 | 6.4 | 14.5 | 0.00 | 0.00 | 0.00 | 60 | 1013.1 |
| 20260504080546 | 10 | 156 | 6.4 | 14.5 | 0.00 | 0.00 | 0.00 | 59 | 1013.2 |
| 20260504060105 | 11 | 187 | 8.0 | 11.3 | 0.00 | 0.00 | 0.00 | 59 | 1014.3 |
| 20260504050547 | 12 | 190 | 9.7 | 17.7 | 0.00 | 0.00 | 0.00 | 55 | 1014.7 |
| 20260504045548 | 11 | 179 | 8.0 | 25.7 | 0.00 | 0.00 | 0.00 | 58 | 1014.8 |
| 20260504045049 | 11 | 202 | 12.9 | 25.7 | 0.00 | 0.00 | 0.00 | 58 | 1014.7 |
| 20260504044554 | 11 | 163 | 12.9 | 24.1 | 0.00 | 0.00 | 0.00 | 56 | 1014.6 |
| 20260504044047 | 11 | 179 | 11.3 | 20.9 | 0.00 | 0.00 | 0.00 | 58 | 1014.3 |
| 20260504043547 | 11 | 136 | 9.7 | 16.1 | 0.00 | 0.00 | 0.00 | 59 | 1014.5 |
| 20260504043101 | 11 | 161 | 4.8 | 9.7 | 0.00 | 0.00 | 0.00 | 62 | 1014.9 |
| 20260504042546 | 11 | 175 | 3.2 | 8.0 | 0.00 | 0.00 | 0.00 | 65 | 1015.0 |
| 20260504042046 | 11 | 178 | 4.8 | 11.3 | 0.00 | 0.00 | 0.00 | 66 | 1015.0 |